P/2004 Y1 (Christensen)                                               

Epoch 2004 June 4.0 TT = JDT 2453160.5  

T 2004 June 21.89335 TT                                 Nakano

q   1.6457462            (2000.0)            P               Q

n   0.14260453     Peri.  325.45233     +0.56315673     -0.77760339

a   3.6283890      Node    88.68929     +0.80715642     +0.44512001

e   0.5464251      Incl.   16.24191     +0.17706783     +0.44407335

P   6.91 (+/- 0.03 day)

From 51 observations 1998-2004, mean residual 0".80.

Residuals in seconds of arc 

1998/                     041119 704  0.2+  0.0     041222 673  1.8+  1.1+  

980124 566  0.0   1.0-    041209 704  0.3+  0.3-    041222 673  1.6+  0.8+  

980124 566  0.3-  0.8-    041209 704  0.8-  0.1+    041222 673  1.2+  0.4+  

980124 566  0.1-  1.0-    041209 704  0.8-  0.3+    041222 703  1.1-  0.2-  

980418 699  0.3+  0.1+    041209 704  0.3+  0.2-    041222 673  1.5+  0.7+  

980418 699  0.4-  0.0     041209 704 (2.2+  2.8+)   041222 703  1.2-  0.2+  

980418 699  0.7-  0.7-    041215 704  0.1+  0.0     041222 703  1.2-  0.0   

2004/                     041215 704  0.5-  0.6-    041222 703  1.5-  0.6-  

041019 704  0.2-  0.2-    041215 704  0.5+  0.0     041223 D83  1.6-  0.2+  

041019 704  0.5+  0.8-    041215 704  0.4+  0.5+    041223 D83  1.5+  0.1-  

041019 704  0.4+  0.4-    041215 704  0.3-  1.0+    041223 D83  0.5+  0.2-  

041021 704  0.8+  0.2+    041221 703  0.5-  0.1-    041223 D83  0.9+  1.3-  

041021 704  0.7-  0.1-    041221 703  1.0-  0.4-    041223 349  0.8-  0.2-  

041021 704  0.7+  0.7+    041221 703  0.9-  0.4-    041223 349  0.5-  0.1+  

041021 704  0.8-  0.2+    041221 703  1.8-  0.6-    041223 349  0.3-  0.2+  

041021 704  1.5-  0.1+    041222 673  1.7+  1.6+    041224 A61  0.2+  0.8+  

041119 704  0.4-  0.8-    041222 673  1.7+  1.3+    041224 A61  0.3+  0.5-  

041119 704  0.2+  0.4-    041222 673  1.5+  1.5+    041224 A61  0.8+  0.4-  



NAKANO

         **** Don't distribute anyone except personal use only ****

                (C) Copyright 2005 OAA/ComputingSection

write mail from CFAD0::NAKANO on 2005-01-04 01:58:32(JST).

 





◎P/2004 Y1の軌道と予報位置です (From YC 2453)

  月惑星研究所のクリステンセン(Eric J. Christensen, LPL)は,カテリナ・

スカイサ−ベイで2004年12月21日に68-cmシュミットを使用して,しし座を撮影

したCCDフレ−ム上の次の位置に16等級の新彗星を発見した.発見時,彗星には

約15"のコマと西に20"の扇形の尾が見られたという.カリフォルニアのヤング(

J. Young, Table Mountain)の12月22日の観測では,彗星には8"のコマと西の方

向に20"の扇形の尾が広がっていた.12月9日の発見前の観測がLINEARサ−ベイ

の1夜の観測群中に見つかっている(IAUC 8458).彗星は,周期が7年ほどの

新周期彗星であった.同サ−ベイからは,10月19日,21日,11月19日,そして,

12月15日の発見前の観測が報告された.彗星の核光度は,いずれも18等級であっ

た.さらに,1回帰前の1998年1月24日のハレアカラNEATサ−ベイ(17等級),

4月18日のLONEOSサ−ベイ(18等級)の捜索フレ−ム上から,それぞれ,17等級

と18等級の彗星のイメ−ジが見つかり,彗星は2回の出現を記録した.なお,12

月の観測から決定された軌道(OAA/CS EMES)からの1998年の観測のずれは,お

よそ,0o.15であった.これで,この彗星には,登録番号164Pが与えられるだろ

う.



   2004 UT             α     (2000)     δ           Mag.

   Dec. 21.47360   11h 02m 23s.99   +22゚ 52' 57".8    16.5

                              - continued -

  OAA計算課では,1998年から2004年12月24日までに行なわれた51個の観測から

次の軌道を計算した.平均残差は0".80(NK 1131; http://www.oaa.gr.jp/~oaa

cs/nk/nk1131.htm).なお,1917年7月に発見された1夜の12.5等の小惑星

A917 OAが下の軌道から予報された位置近く,0o.25以内にいる.12月23日の上尾

の門田健一氏(K. Kadata, Ageo)の観測では,彗星のCCD全光度は17.0等とのこ

と.ただし,15等級という観測もある.1997年の近日点通過は7月22日,彗星は,

1995年8月に木星まで0.90 AUまで接近していた.



   T = 2004 June 21.89335 TT    Epoch = 2004 June 4.0 TT

   ω = 325o.45233                  e =   0.5464251

   Ω =  88.68929    (2000.0)       a =   3.6283890 AU

   i =  16.24191                   n゚=   0.14260453

   q =   1.6457462 AU              P =   6.91 年 ±  0.0 日



2004/2005    α  (2000) δ      △      r      Elong. Phase    m1 

  0h TT     h  m       。  ,        AU      AU      。      。      等

Dec. 31   11 05.79  +24 13.1    1.762   2.410   120.1   20.7   16.1

Jan. 10   11 06.19  +25 52.7    1.721   2.469   129.8   17.8   16.1

     20   11 03.28  +27 42.2    1.697   2.528   139.6   14.6   16.2

     30   10 57.34  +29 32.2    1.694   2.587   148.7   11.4   16.3

Feb.  9   10 49.00  +31 11.8    1.715   2.646   155.7    8.8   16.4

     19   10 39.30  +32 31.0    1.763   2.704   157.8    8.0   16.6

Mar.  1   10 29.50  +33 22.8    1.838   2.763   153.9    9.1   16.7

     11   10 20.76  +33 45.7    1.939   2.821   146.5   11.2   16.9

     21   10 14.01  +33 41.4    2.062   2.879   137.8   13.4   17.2

     31   10 09.71  +33 14.7    2.205   2.936   128.8   15.4   17.4

Apr. 10   10 07.96  +32 30.7    2.364   2.993   120.0   16.9   17.6

     20   10 08.64  +31 33.8    2.534   3.049   111.5   17.8   17.9

     30   10 11.45  +30 27.8    2.714   3.105   103.4   18.4   18.1

May  10   10 16.07  +29 15.3    2.899   3.161    95.6   18.5   18.3 

                    m1 = 11.0 + 5 log △ + 10.0 log r

NAKANO

         **** Don't distribute anyone except personal use only ****

                (C) Copyright 2005 OAA/ComputingSection

write mail from CFAD0::NAKANO on 2005-01-03 05:58:03(JST).

 







◎P/2004 S1の軌道と位置予報です



 上尾の門田健一氏から12月23日の観測が報告されました.氏の CCD全光度

は17.0等でした.



    P/2004 Y1 (Christensen)                                               

T 2004 June 21.94849 TT                                 Nakano

q   1.6453829            (2000.0)            P               Q

n   0.14262718     Peri.  325.46026     +0.56324409     -0.77756115

a   3.6280048      Node    88.67618     +0.80708673     +0.44519051

e   0.5464772      Incl.   16.23850     +0.17710763     +0.44407665

P   6.91 (+/-16.49 day)

From 27 observations 2004 Dec. 9-23.

 

Date/        TT  R.A.(2000) Decl.     Delta   r     Daily motion  Mag.  Moon Age

              h    h  m       。  ,                      ,  / PA 。  m1      。

2004 Dec. 20 18  11 02.03  +22 47.6   1.816  2.350    10.3 /  43  16.0  132  .71

          21 18  11 02.54  +22 55.1   1.810  2.356    10.2 /  41  16.0  120  .79

          22 18  11 03.02  +23 02.8   1.804  2.362    10.0 /  38  16.0  108  .87

          23 18  11 03.47  +23 10.6   1.799  2.368     9.9 /  36  16.0   96  .93

          24 18  11 03.89  +23 18.7   1.793  2.373     9.8 /  33  16.0   84  .97

          25 18  11 04.28  +23 26.9   1.788  2.379     9.7 /  30  16.0   73  .99

          26 18  11 04.63  +23 35.3   1.783  2.385     9.7 /  27  16.0   61 1.00

          27 18  11 04.96  +23 43.9   1.777  2.391     9.7 /  25  16.0   50  .99

          28 18  11 05.25  +23 52.7   1.772  2.397     9.6 /  22  16.0   39  .96

          29 18  11 05.51  +24 01.7   1.767  2.403     9.6 /  19  16.0   28  .91

          30 18  11 05.74  +24 10.8   1.763  2.409     9.7 /  16  16.0   18  .85

          31 18  11 05.94  +24 20.0   1.758  2.414     9.7 /  13  16.1   13  .78

2005 Jan.  1 18  11 06.10  +24 29.5   1.753  2.420     9.8 /  11  16.1   17  .69

           2 18  11 06.23  +24 39.1   1.749  2.426     9.8 /   8  16.1   27  .60

           3 18  11 06.33  +24 48.8   1.745  2.432     9.9 /   5  16.1   39  .50

           4 18  11 06.39  +24 58.7   1.740  2.438    10.0 /   2  16.1   51  .39

           5 18  11 06.42  +25 08.7   1.736  2.444    10.2 / 360  16.1   64  .29

           6 18  11 06.42  +25 18.9   1.732  2.450    10.3 / 357  16.1   78  .19

           7 18  11 06.39  +25 29.2   1.729  2.456    10.4 / 355  16.1   92  .11

           8 18  11 06.32  +25 39.6   1.725  2.461    10.6 / 352  16.1  107  .05

           9 18  11 06.21  +25 50.1   1.722  2.467    10.8 / 350  16.1  121  .01

          10 18  11 06.08  +26 00.7   1.718  2.473    11.0 / 348  16.1  136  .00

          11 18  11 05.91  +26 11.4   1.715  2.479    11.1 / 346  16.1  150  .03

          12 18  11 05.71  +26 22.2   1.712  2.485    11.3 / 344  16.1  161  .08

          13 18  11 05.47  +26 33.1   1.709  2.491    11.5 / 342  16.1  165  .15

          14 18  11 05.20  +26 44.0   1.707  2.497    11.7 / 340  16.1  157  .24

          15 18  11 04.90  +26 55.0   1.705  2.503    11.9 / 338  16.1  145  .34

          16 18  11 04.57  +27 06.1   1.702  2.508    12.1 / 336  16.1  133  .44

          17 18  11 04.21  +27 17.2   1.700  2.514    12.3 / 335  16.2  121  .55

          18 18  11 03.81  +27 28.3   1.699  2.520    12.5 / 333  16.2  109  .64

          19 18  11 03.38  +27 39.5   1.697  2.526    12.7 / 331  16.2   97  .73

          20 18  11 02.92  +27 50.6   1.696  2.532    12.9 / 330  16.2   85  .81

          21 18  11 02.44  +28 01.7   1.694  2.538    13.1 / 328  16.2   74  .88

          22 18  11 01.92  +28 12.9   1.694  2.544    13.2 / 327  16.2   62  .93

          23 18  11 01.37  +28 24.0   1.693  2.550    13.4 / 326  16.2   51  .97

          24 18  11 00.80  +28 35.1   1.692  2.556    13.6 / 324  16.2   40  .99

          25 18  11 00.19  +28 46.1   1.692  2.562    13.8 / 323  16.2   29 1.00

          26 18  10 59.56  +28 57.1   1.692  2.567    13.9 / 322  16.2   21  .98

          27 18  10 58.91  +29 08.0   1.692  2.573    14.0 / 320  16.2   17  .95

          28 18  10 58.22  +29 18.8   1.693  2.579    14.2 / 319  16.3   21  .90

          29 18  10 57.51  +29 29.5   1.693  2.585    14.3 / 318  16.3   30  .84

          30 18  10 56.78  +29 40.2   1.694  2.591    14.4 / 317  16.3   41  .75

          31 18  10 56.02  +29 50.7   1.695  2.597    14.5 / 316  16.3   53  .66

NAKANO

         **** Don't distribute anyone except personal use only ****

                (C) Copyright 2004 OAA/ComputingSection

write mail from CFAD0::NAKANO on 2004-12-24 04:32:43(JST).

 

戻ります。